User: anonymous   Login
Location: Unspecified
(0.0000°N, 0.0000°E)
Time: 14:37:55
(UTC+00:00)
Language:

CICERO 10 - Orbit

View from above orbital plane
View from above orbital plane
View from above satellite
View from above satellite

Ground track
Ground track

The orbit data is extracted from the following two-line orbital elements,

1 43690U 18088A   19047.92913797 +.00000835 +00000-0 +37539-4 0  9992
2 43690 085.0369 038.6429 0013200 298.8736 061.1179 15.19405826014861
Epoch (UTC): 16 February 2019 22:17:57
Eccentricity: 0.0013200
inclination: 85.0369°
perigee height: 498 km
apogee height: 517 km
right ascension of ascending node: 38.6429°
argument of perigee: 298.8736°
revolutions per day: 15.19405826
mean anomaly at epoch: 61.1179°
orbit number at epoch: 1486

The dashed part of the orbit path shows where the satellite is in the earth's shadow,  

DLR